Year,Month,Day,Hour,Minute,Value (Times are PST for temperature in C)
2008,09,16,00,00,16.10
2008,09,16,00,01,16.10
2008,09,16,00,02,16.10
2008,09,16,00,03,16.10
2008,09,16,00,04,15.90
2008,09,16,00,05,15.90
2008,09,16,00,06,15.90
2008,09,16,00,07,15.90
2008,09,16,00,08,15.90
2008,09,16,00,09,15.90
2008,09,16,00,10,15.90
2008,09,16,00,11,15.90
2008,09,16,00,12,15.90
2008,09,16,00,13,15.90
2008,09,16,00,14,15.90
2008,09,16,00,15,15.90
2008,09,16,00,16,15.90
2008,09,16,00,17,15.90
2008,09,16,00,18,15.90
2008,09,16,00,19,15.90
2008,09,16,00,20,15.90
2008,09,16,00,21,15.90
2008,09,16,00,22,15.80
2008,09,16,00,23,15.80
2008,09,16,00,24,15.80
2008,09,16,00,25,15.80
2008,09,16,00,26,15.70
2008,09,16,00,27,15.70
2008,09,16,00,28,15.60
2008,09,16,00,29,15.60
2008,09,16,00,30,15.50
2008,09,16,00,31,15.50
2008,09,16,00,32,15.40
2008,09,16,00,33,15.40
2008,09,16,00,34,15.30
2008,09,16,00,35,15.30
2008,09,16,00,36,15.30
2008,09,16,00,37,15.30
2008,09,16,00,38,15.30
2008,09,16,00,39,15.20
2008,09,16,00,40,15.20
2008,09,16,00,41,15.10
2008,09,16,00,42,15.10
2008,09,16,00,43,15.10
2008,09,16,00,44,15.00
2008,09,16,00,45,15.00
2008,09,16,00,46,15.00
2008,09,16,00,47,15.00
2008,09,16,00,48,14.90
2008,09,16,00,49,14.90
2008,09,16,00,50,14.90
2008,09,16,00,51,14.90
2008,09,16,00,52,14.90
2008,09,16,00,53,14.80
2008,09,16,00,54,14.80
2008,09,16,00,55,14.80
2008,09,16,00,56,14.80
2008,09,16,00,57,14.80
2008,09,16,00,58,14.80
2008,09,16,00,59,14.80
2008,09,16,01,00,14.80
2008,09,16,01,01,14.80
2008,09,16,01,02,14.80
2008,09,16,01,03,14.80
2008,09,16,01,04,14.80
2008,09,16,01,05,14.70
2008,09,16,01,06,14.70
2008,09,16,01,07,14.70
2008,09,16,01,08,14.70
2008,09,16,01,09,14.70
2008,09,16,01,10,14.70
2008,09,16,01,11,14.70
2008,09,16,01,12,14.70
2008,09,16,01,13,14.70
2008,09,16,01,14,14.70
2008,09,16,01,15,14.70
2008,09,16,01,16,14.70
2008,09,16,01,17,14.70
2008,09,16,01,18,14.70
2008,09,16,01,19,14.70
2008,09,16,01,20,14.70
2008,09,16,01,21,14.70
2008,09,16,01,22,14.70
2008,09,16,01,23,14.60
2008,09,16,01,24,14.60
2008,09,16,01,25,14.60
2008,09,16,01,26,14.60
2008,09,16,01,27,14.60
2008,09,16,01,28,14.50
2008,09,16,01,29,14.50
2008,09,16,01,30,14.50
2008,09,16,01,31,14.50
2008,09,16,01,32,14.40
2008,09,16,01,33,14.40
2008,09,16,01,34,14.40
2008,09,16,01,35,14.40
2008,09,16,01,36,14.40
2008,09,16,01,37,14.30
2008,09,16,01,38,14.30
2008,09,16,01,39,14.30
2008,09,16,01,40,14.30
2008,09,16,01,41,14.30
2008,09,16,01,42,14.30
2008,09,16,01,43,14.30
2008,09,16,01,44,14.30
2008,09,16,01,45,14.30
2008,09,16,01,46,14.20
2008,09,16,01,47,14.20
2008,09,16,01,48,14.30
2008,09,16,01,49,14.30
2008,09,16,01,50,14.20
2008,09,16,01,51,14.20
2008,09,16,01,52,14.20
2008,09,16,01,53,14.20
2008,09,16,01,54,14.30
2008,09,16,01,55,14.30
2008,09,16,01,56,14.20
2008,09,16,01,57,14.20
2008,09,16,01,58,14.20
2008,09,16,01,59,14.20
2008,09,16,02,00,14.20
2008,09,16,02,01,14.20
2008,09,16,02,02,14.20
2008,09,16,02,03,14.20
2008,09,16,02,04,14.20
2008,09,16,02,05,14.20
2008,09,16,02,06,14.20
2008,09,16,02,07,14.20
2008,09,16,02,08,14.20
2008,09,16,02,09,14.20
2008,09,16,02,10,14.20
2008,09,16,02,11,14.20
2008,09,16,02,12,14.20
2008,09,16,02,13,14.20
2008,09,16,02,14,14.20
2008,09,16,02,15,14.20
2008,09,16,02,16,14.20
2008,09,16,02,17,14.20
2008,09,16,02,18,14.20
2008,09,16,02,19,14.20
2008,09,16,02,20,14.20
2008,09,16,02,21,14.20
2008,09,16,02,22,14.20
2008,09,16,02,23,14.20
2008,09,16,02,24,14.10
2008,09,16,02,25,14.10
2008,09,16,02,26,14.10
2008,09,16,02,27,14.10
2008,09,16,02,28,14.00
2008,09,16,02,29,14.00
2008,09,16,02,30,14.00
2008,09,16,02,31,14.00
2008,09,16,02,32,14.00
2008,09,16,02,33,14.00
2008,09,16,02,34,14.00
2008,09,16,02,35,13.90
2008,09,16,02,36,13.90
2008,09,16,02,37,13.90
2008,09,16,02,38,13.90
2008,09,16,02,39,13.90
2008,09,16,02,40,13.90
2008,09,16,02,41,13.80
2008,09,16,02,42,13.80
2008,09,16,02,43,13.70
2008,09,16,02,44,13.70
2008,09,16,02,45,13.70
2008,09,16,02,46,13.70
2008,09,16,02,47,13.60
2008,09,16,02,48,13.60
2008,09,16,02,49,13.50
2008,09,16,02,50,13.50
2008,09,16,02,51,13.40
2008,09,16,02,52,13.40
2008,09,16,02,53,13.30
2008,09,16,02,54,13.30
2008,09,16,02,55,13.30
2008,09,16,02,56,13.30
2008,09,16,02,57,13.30
2008,09,16,02,58,13.30
2008,09,16,02,59,13.30
2008,09,16,03,00,13.30
2008,09,16,03,01,13.20
2008,09,16,03,02,13.20
2008,09,16,03,03,13.20
2008,09,16,03,04,13.10
2008,09,16,03,05,13.10
2008,09,16,03,06,13.10
2008,09,16,03,07,13.10
2008,09,16,03,08,13.10
2008,09,16,03,09,13.10
2008,09,16,03,10,13.00
2008,09,16,03,11,13.00
2008,09,16,03,12,13.00
2008,09,16,03,13,13.10
2008,09,16,03,14,13.10
2008,09,16,03,15,13.20
2008,09,16,03,16,13.20
2008,09,16,03,17,13.20
2008,09,16,03,18,13.20
2008,09,16,03,19,13.20
2008,09,16,03,20,13.20
2008,09,16,03,21,13.20
2008,09,16,03,22,13.20
2008,09,16,03,23,13.20
2008,09,16,03,24,13.30
2008,09,16,03,25,13.30
2008,09,16,03,26,13.30
2008,09,16,03,27,13.20
2008,09,16,03,28,13.20
2008,09,16,03,29,13.20
2008,09,16,03,30,13.10
2008,09,16,03,31,13.20
2008,09,16,03,32,13.20
2008,09,16,03,33,13.30
2008,09,16,03,34,13.30
2008,09,16,03,35,13.30
2008,09,16,03,36,13.40
2008,09,16,03,37,13.40
2008,09,16,03,38,13.40
2008,09,16,03,39,13.50
2008,09,16,03,40,13.50
2008,09,16,03,41,13.60
2008,09,16,03,42,13.60
2008,09,16,03,43,13.70
2008,09,16,03,44,13.70
2008,09,16,03,45,13.70
2008,09,16,03,46,13.70
2008,09,16,03,47,13.70
2008,09,16,03,48,13.70
2008,09,16,03,49,13.70
2008,09,16,03,50,13.70
2008,09,16,03,51,13.80
2008,09,16,03,52,13.80
2008,09,16,03,53,13.80
2008,09,16,03,54,13.80
2008,09,16,03,55,13.80
2008,09,16,03,56,13.80
2008,09,16,03,57,13.80
2008,09,16,03,58,13.90
2008,09,16,03,59,13.90
2008,09,16,04,00,14.00
2008,09,16,04,01,14.00
2008,09,16,04,02,14.10
2008,09,16,04,03,14.20
2008,09,16,04,04,14.20
2008,09,16,04,05,14.20
2008,09,16,04,06,14.30
2008,09,16,04,07,14.30
2008,09,16,04,08,14.30
2008,09,16,04,09,14.40
2008,09,16,04,10,14.40
2008,09,16,04,11,14.40
2008,09,16,04,12,14.40
2008,09,16,04,13,14.40
2008,09,16,04,14,14.40
2008,09,16,04,15,14.40
2008,09,16,04,16,14.40
2008,09,16,04,17,14.40
2008,09,16,04,18,14.40
2008,09,16,04,19,14.40
2008,09,16,04,20,14.40
2008,09,16,04,21,14.40
2008,09,16,04,22,14.40
2008,09,16,04,23,14.40
2008,09,16,04,24,14.40
2008,09,16,04,25,14.40
2008,09,16,04,26,14.30
2008,09,16,04,27,14.30
2008,09,16,04,28,14.30
2008,09,16,04,29,14.20
2008,09,16,04,30,14.20
2008,09,16,04,31,14.20
2008,09,16,04,32,14.20
2008,09,16,04,33,14.20
2008,09,16,04,34,14.20
2008,09,16,04,35,14.20
2008,09,16,04,36,14.20
2008,09,16,04,37,14.10
2008,09,16,04,38,14.10
2008,09,16,04,39,14.10
2008,09,16,04,40,14.00
2008,09,16,04,41,14.00
2008,09,16,04,42,14.00
2008,09,16,04,43,13.90
2008,09,16,04,44,13.90
2008,09,16,04,45,13.90
2008,09,16,04,46,13.80
2008,09,16,04,47,13.80
2008,09,16,04,48,13.80
2008,09,16,04,49,13.70
2008,09,16,04,50,13.70
2008,09,16,04,51,13.70
2008,09,16,04,52,13.70
2008,09,16,04,53,13.70
2008,09,16,04,54,13.60
2008,09,16,04,55,13.60
2008,09,16,04,56,13.60
2008,09,16,04,57,13.60
2008,09,16,04,58,13.60
2008,09,16,04,59,13.60
2008,09,16,05,00,13.60
2008,09,16,05,01,13.60
2008,09,16,05,02,13.50
2008,09,16,05,03,13.50
2008,09,16,05,04,13.50
2008,09,16,05,05,13.50
2008,09,16,05,06,13.50
2008,09,16,05,07,13.50
2008,09,16,05,08,13.50
2008,09,16,05,09,13.50
2008,09,16,05,10,13.50
2008,09,16,05,11,13.50
2008,09,16,05,12,13.50
2008,09,16,05,13,13.50
2008,09,16,05,14,13.50
2008,09,16,05,15,13.50
2008,09,16,05,16,13.50
2008,09,16,05,17,13.60
2008,09,16,05,18,13.60
2008,09,16,05,19,13.60
2008,09,16,05,20,13.60
2008,09,16,05,21,13.60
2008,09,16,05,22,13.60
2008,09,16,05,23,13.60
2008,09,16,05,24,13.60
2008,09,16,05,25,13.60
2008,09,16,05,26,13.60
2008,09,16,05,27,13.50
2008,09,16,05,28,13.50
2008,09,16,05,29,13.50
2008,09,16,05,30,13.50
2008,09,16,05,31,13.50
2008,09,16,05,32,13.40
2008,09,16,05,33,13.40
2008,09,16,05,34,13.40
2008,09,16,05,35,13.40
2008,09,16,05,36,13.40
2008,09,16,05,37,13.40
2008,09,16,05,38,13.40
2008,09,16,05,39,13.40
2008,09,16,05,40,13.50
2008,09,16,05,41,13.50
2008,09,16,05,42,13.50
2008,09,16,05,43,13.50
2008,09,16,05,44,13.40
2008,09,16,05,45,13.40
2008,09,16,05,46,13.30
2008,09,16,05,47,13.30
2008,09,16,05,48,13.30
2008,09,16,05,49,13.20
2008,09,16,05,50,13.10
2008,09,16,05,51,13.10
2008,09,16,05,52,13.00
2008,09,16,05,53,13.00
2008,09,16,05,54,12.90
2008,09,16,05,55,12.90
2008,09,16,05,56,12.80
2008,09,16,05,57,12.80
2008,09,16,05,58,12.70
2008,09,16,05,59,12.70
2008,09,16,06,00,12.70
2008,09,16,06,01,12.60
2008,09,16,06,02,12.60
2008,09,16,06,03,12.60
2008,09,16,06,04,12.60
2008,09,16,06,05,12.50
2008,09,16,06,06,12.50
2008,09,16,06,07,12.50
2008,09,16,06,08,12.50
2008,09,16,06,09,12.50
2008,09,16,06,10,12.50
2008,09,16,06,11,12.50
2008,09,16,06,12,12.50
2008,09,16,06,13,12.50
2008,09,16,06,14,12.50
2008,09,16,06,15,12.40
2008,09,16,06,16,12.40
2008,09,16,06,17,12.40
2008,09,16,06,18,12.40
2008,09,16,06,19,12.40
2008,09,16,06,20,12.40
2008,09,16,06,21,12.40
2008,09,16,06,22,12.40
2008,09,16,06,23,12.40
2008,09,16,06,24,12.40
2008,09,16,06,25,12.40
2008,09,16,06,26,12.40
2008,09,16,06,27,12.40
2008,09,16,06,28,12.40
2008,09,16,06,29,12.40
2008,09,16,06,30,12.40
2008,09,16,06,31,12.40
2008,09,16,06,32,12.40
2008,09,16,06,33,12.40
2008,09,16,06,34,12.40
2008,09,16,06,35,12.30
2008,09,16,06,36,12.30
2008,09,16,06,37,12.30
2008,09,16,06,38,12.30
2008,09,16,06,39,12.30
2008,09,16,06,40,12.30
2008,09,16,06,41,12.30
2008,09,16,06,42,12.30
2008,09,16,06,43,12.30
2008,09,16,06,44,12.30
2008,09,16,06,45,12.30
2008,09,16,06,46,12.30
2008,09,16,06,47,12.30
2008,09,16,06,48,12.30
2008,09,16,06,49,12.30
2008,09,16,06,50,12.30
2008,09,16,06,51,12.30
2008,09,16,06,52,12.30
2008,09,16,06,53,12.30
2008,09,16,06,54,12.30
2008,09,16,06,55,12.30
2008,09,16,06,56,12.20
2008,09,16,06,57,12.20
2008,09,16,06,58,12.20
2008,09,16,06,59,12.20
2008,09,16,07,00,12.20
2008,09,16,07,01,12.10
2008,09,16,07,02,12.10
2008,09,16,07,03,12.10
2008,09,16,07,04,12.10
2008,09,16,07,05,12.10
2008,09,16,07,06,12.10
2008,09,16,07,07,12.10
2008,09,16,07,08,12.00
2008,09,16,07,09,12.00
2008,09,16,07,10,12.00
2008,09,16,07,11,12.00
2008,09,16,07,12,12.00
2008,09,16,07,13,12.00
2008,09,16,07,14,12.00
2008,09,16,07,15,12.00
2008,09,16,07,16,12.00
2008,09,16,07,17,11.90
2008,09,16,07,18,11.90
2008,09,16,07,19,11.90
2008,09,16,07,20,11.90
2008,09,16,07,21,11.90
2008,09,16,07,22,11.90
2008,09,16,07,23,12.00
2008,09,16,07,24,12.00
2008,09,16,07,25,12.00
2008,09,16,07,26,12.00
2008,09,16,07,27,12.00
2008,09,16,07,28,12.00
2008,09,16,07,29,12.00
2008,09,16,07,30,12.10
2008,09,16,07,31,12.10
2008,09,16,07,32,12.10
2008,09,16,07,33,12.10
2008,09,16,07,34,12.10
2008,09,16,07,35,12.10
2008,09,16,07,36,12.20
2008,09,16,07,37,12.20
2008,09,16,07,38,12.20
2008,09,16,07,39,12.20
2008,09,16,07,40,12.30
2008,09,16,07,41,12.30
2008,09,16,07,42,12.30
2008,09,16,07,43,12.30
2008,09,16,07,44,12.30
2008,09,16,07,45,12.30
2008,09,16,07,46,12.40
2008,09,16,07,47,12.40
2008,09,16,07,48,12.40
2008,09,16,07,49,12.50
2008,09,16,07,50,12.50
2008,09,16,07,51,12.50
2008,09,16,07,52,12.60
2008,09,16,07,53,12.60
2008,09,16,07,54,12.60
2008,09,16,07,55,12.60
2008,09,16,07,56,12.70
2008,09,16,07,57,12.70
2008,09,16,07,58,12.70
2008,09,16,07,59,12.80
2008,09,16,08,00,12.80
2008,09,16,08,01,12.80
2008,09,16,08,02,12.80
2008,09,16,08,03,12.90
2008,09,16,08,04,12.90
2008,09,16,08,05,13.00
2008,09,16,08,06,13.00
2008,09,16,08,07,13.00
2008,09,16,08,08,13.10
2008,09,16,08,09,13.10
2008,09,16,08,10,13.20
2008,09,16,08,11,13.20
2008,09,16,08,12,13.30
2008,09,16,08,13,13.30
2008,09,16,08,14,13.40
2008,09,16,08,15,13.50
2008,09,16,08,16,13.50
2008,09,16,08,17,13.60
2008,09,16,08,18,13.70
2008,09,16,08,19,13.70
2008,09,16,08,20,13.70
2008,09,16,08,21,13.80
2008,09,16,08,22,13.80
2008,09,16,08,23,13.80
2008,09,16,08,24,13.90
2008,09,16,08,25,13.90
2008,09,16,08,26,13.90
2008,09,16,08,27,13.90
2008,09,16,08,28,13.90
2008,09,16,08,29,14.00
2008,09,16,08,30,14.00
2008,09,16,08,31,14.00
2008,09,16,08,32,14.00
2008,09,16,08,33,14.00
2008,09,16,08,34,14.10
2008,09,16,08,35,14.10
2008,09,16,08,36,14.10
2008,09,16,08,37,14.20
2008,09,16,08,38,14.20
2008,09,16,08,39,14.20
2008,09,16,08,40,14.20
2008,09,16,08,41,14.20
2008,09,16,08,42,14.30
2008,09,16,08,43,14.30
2008,09,16,08,44,14.30
2008,09,16,08,45,14.40
2008,09,16,08,46,14.40
2008,09,16,08,47,14.40
2008,09,16,08,48,14.50
2008,09,16,08,49,14.60
2008,09,16,08,50,14.60
2008,09,16,08,51,14.60
2008,09,16,08,52,14.70
2008,09,16,08,53,14.70
2008,09,16,08,54,14.70
2008,09,16,08,55,14.70
2008,09,16,08,56,14.80
2008,09,16,08,57,14.80
2008,09,16,08,58,14.80
2008,09,16,08,59,14.80
2008,09,16,09,00,14.70
2008,09,16,09,01,14.70
2008,09,16,09,02,14.60
2008,09,16,09,03,14.60
2008,09,16,09,04,14.60
2008,09,16,09,05,14.50
2008,09,16,09,06,14.50
2008,09,16,09,07,14.50
2008,09,16,09,08,14.50
2008,09,16,09,09,14.50
2008,09,16,09,10,14.50
2008,09,16,09,11,14.50
2008,09,16,09,12,14.50
2008,09,16,09,13,14.60
2008,09,16,09,14,14.60
2008,09,16,09,15,14.70
2008,09,16,09,16,14.70
2008,09,16,09,17,14.80
2008,09,16,09,18,14.80
2008,09,16,09,19,14.80
2008,09,16,09,20,14.80
2008,09,16,09,21,14.90
2008,09,16,09,22,14.90
2008,09,16,09,23,15.00
2008,09,16,09,24,15.10
2008,09,16,09,25,15.10
2008,09,16,09,26,15.20
2008,09,16,09,27,15.30
2008,09,16,09,28,15.30
2008,09,16,09,29,15.40
2008,09,16,09,30,15.40
2008,09,16,09,31,15.50
2008,09,16,09,32,15.50
2008,09,16,09,33,15.50
2008,09,16,09,34,15.50
2008,09,16,09,35,15.50
2008,09,16,09,36,15.50
2008,09,16,09,37,15.40
2008,09,16,09,38,15.40
2008,09,16,09,39,15.30
2008,09,16,09,40,15.30
2008,09,16,09,41,15.30
2008,09,16,09,42,15.30
2008,09,16,09,43,15.30
2008,09,16,09,44,15.40
2008,09,16,09,45,15.40
2008,09,16,09,46,15.40
2008,09,16,09,47,15.40
2008,09,16,09,48,15.40
2008,09,16,09,49,15.50
2008,09,16,09,50,15.50
2008,09,16,09,51,15.60
2008,09,16,09,52,15.60
2008,09,16,09,53,15.70
2008,09,16,09,54,15.80
2008,09,16,09,55,15.80
2008,09,16,09,56,15.90
2008,09,16,09,57,16.00
2008,09,16,09,58,16.10
2008,09,16,09,59,16.20
2008,09,16,10,00,16.30
2008,09,16,10,01,16.30
2008,09,16,10,02,16.30
2008,09,16,10,03,16.40
2008,09,16,10,04,16.40
2008,09,16,10,05,16.40
2008,09,16,10,06,16.40
2008,09,16,10,07,16.40
2008,09,16,10,08,16.40
2008,09,16,10,09,16.40
2008,09,16,10,10,16.40
2008,09,16,10,11,16.40
2008,09,16,10,12,16.50
2008,09,16,10,13,16.60
2008,09,16,10,14,16.60
2008,09,16,10,15,16.60
2008,09,16,10,16,16.60
2008,09,16,10,17,16.60
2008,09,16,10,18,16.60
2008,09,16,10,19,16.70
2008,09,16,10,20,16.70
2008,09,16,10,21,16.70
2008,09,16,10,22,16.80
2008,09,16,10,23,16.80
2008,09,16,10,24,16.80
2008,09,16,10,25,16.80
2008,09,16,10,26,16.80
2008,09,16,10,27,16.90
2008,09,16,10,28,16.90
2008,09,16,10,29,16.90
2008,09,16,10,30,17.00
2008,09,16,10,31,17.00
2008,09,16,10,32,17.00
2008,09,16,10,33,17.00
2008,09,16,10,34,17.10
2008,09,16,10,35,17.10
2008,09,16,10,36,17.20
2008,09,16,10,37,17.30
2008,09,16,10,38,17.30
2008,09,16,10,39,17.30
2008,09,16,10,40,17.30
2008,09,16,10,41,17.30
2008,09,16,10,42,17.30
2008,09,16,10,43,17.30
2008,09,16,10,44,17.30
2008,09,16,10,45,17.30
2008,09,16,10,46,17.30
2008,09,16,10,47,17.30
2008,09,16,10,48,17.40
2008,09,16,10,49,17.40
2008,09,16,10,50,17.40
2008,09,16,10,51,17.40
2008,09,16,10,52,17.40
2008,09,16,10,53,17.40
2008,09,16,10,54,17.40
2008,09,16,10,55,17.40
2008,09,16,10,56,17.50
2008,09,16,10,57,17.50
2008,09,16,10,58,17.60
2008,09,16,10,59,17.60
2008,09,16,11,00,17.70
2008,09,16,11,01,17.70
2008,09,16,11,02,17.70
2008,09,16,11,03,17.70
2008,09,16,11,04,17.60
2008,09,16,11,05,17.60
2008,09,16,11,06,17.60
2008,09,16,11,07,17.60
2008,09,16,11,08,17.60
2008,09,16,11,09,17.50
2008,09,16,11,10,17.50
2008,09,16,11,11,17.60
2008,09,16,11,12,17.70
2008,09,16,11,13,17.90
2008,09,16,11,14,17.90
2008,09,16,11,15,17.90
2008,09,16,11,16,17.90
2008,09,16,11,17,17.90
2008,09,16,11,18,17.90
2008,09,16,11,19,17.90
2008,09,16,11,20,17.90
2008,09,16,11,21,17.90
2008,09,16,11,22,17.90
2008,09,16,11,23,18.00
2008,09,16,11,24,18.10
2008,09,16,11,25,18.20
2008,09,16,11,26,18.20
2008,09,16,11,27,18.20
2008,09,16,11,28,18.30
2008,09,16,11,29,18.40
2008,09,16,11,30,18.40
2008,09,16,11,31,18.40
2008,09,16,11,32,18.40
2008,09,16,11,33,18.50
2008,09,16,11,34,18.50
2008,09,16,11,35,18.40
2008,09,16,11,36,18.50
2008,09,16,11,37,18.50
2008,09,16,11,38,18.50
2008,09,16,11,39,18.60
2008,09,16,11,40,18.70
2008,09,16,11,41,18.70
2008,09,16,11,42,18.70
2008,09,16,11,43,18.70
2008,09,16,11,44,18.70
2008,09,16,11,45,18.70
2008,09,16,11,46,18.70
2008,09,16,11,47,18.70
2008,09,16,11,48,18.60
2008,09,16,11,49,18.70
2008,09,16,11,50,18.70
2008,09,16,11,51,18.80
2008,09,16,11,52,18.90
2008,09,16,11,53,18.90
2008,09,16,11,54,18.90
2008,09,16,11,55,18.90
2008,09,16,11,56,18.90
2008,09,16,11,57,18.90
2008,09,16,11,58,19.10
2008,09,16,11,59,19.10
2008,09,16,12,00,19.10
2008,09,16,12,01,19.10
2008,09,16,12,02,19.00
2008,09,16,12,03,18.90
2008,09,16,12,04,19.00
2008,09,16,12,05,19.10
2008,09,16,12,06,19.10
2008,09,16,12,07,19.10
2008,09,16,12,08,19.10
2008,09,16,12,09,19.10
2008,09,16,12,10,19.10
2008,09,16,12,11,19.10
2008,09,16,12,12,19.10
2008,09,16,12,13,19.10
2008,09,16,12,14,19.20
2008,09,16,12,15,19.30
2008,09,16,12,16,19.30
2008,09,16,12,17,19.30
2008,09,16,12,18,19.40
2008,09,16,12,19,19.40
2008,09,16,12,20,19.40
2008,09,16,12,21,19.50
2008,09,16,12,22,19.50
2008,09,16,12,23,19.50
2008,09,16,12,24,19.50
2008,09,16,12,25,19.40
2008,09,16,12,26,19.40
2008,09,16,12,27,19.30
2008,09,16,12,28,19.30
2008,09,16,12,29,19.30
2008,09,16,12,30,19.40
2008,09,16,12,31,19.40
2008,09,16,12,32,19.40
2008,09,16,12,33,19.50
2008,09,16,12,34,19.60
2008,09,16,12,35,19.60
2008,09,16,12,36,19.80
2008,09,16,12,37,19.90
2008,09,16,12,38,19.90
2008,09,16,12,39,20.00
2008,09,16,12,40,20.10
2008,09,16,12,41,20.20
2008,09,16,12,42,20.20
2008,09,16,12,43,20.20
2008,09,16,12,44,20.20
2008,09,16,12,45,20.20
2008,09,16,12,46,20.10
2008,09,16,12,47,20.10
2008,09,16,12,48,20.10
2008,09,16,12,49,20.10
2008,09,16,12,50,20.10
2008,09,16,12,51,20.10
2008,09,16,12,52,20.10
2008,09,16,12,53,20.10
2008,09,16,12,54,20.20
2008,09,16,12,55,20.20
2008,09,16,12,56,20.20
2008,09,16,12,57,20.20
2008,09,16,12,58,20.20
2008,09,16,12,59,20.20
2008,09,16,13,00,20.20
2008,09,16,13,01,20.20
2008,09,16,13,02,20.30
2008,09,16,13,03,20.30
2008,09,16,13,04,20.40
2008,09,16,13,05,20.40
2008,09,16,13,06,20.50
2008,09,16,13,07,20.50
2008,09,16,13,08,20.50
2008,09,16,13,09,20.50
2008,09,16,13,10,20.50
2008,09,16,13,11,20.60
2008,09,16,13,12,20.60
2008,09,16,13,13,20.60
2008,09,16,13,14,20.70
2008,09,16,13,15,20.80
2008,09,16,13,16,20.90
2008,09,16,13,17,20.90
2008,09,16,13,18,21.00
2008,09,16,13,19,21.00
2008,09,16,13,20,21.00
2008,09,16,13,21,21.00
2008,09,16,13,22,21.10
2008,09,16,13,23,21.10
2008,09,16,13,24,21.10
2008,09,16,13,25,21.10
2008,09,16,13,26,21.10
2008,09,16,13,27,21.10
2008,09,16,13,28,21.10
2008,09,16,13,29,21.00
2008,09,16,13,30,21.00
2008,09,16,13,31,21.10
2008,09,16,13,32,21.20
2008,09,16,13,33,21.20
2008,09,16,13,34,21.10
2008,09,16,13,35,21.00
2008,09,16,13,36,21.00
2008,09,16,13,37,20.90
2008,09,16,13,38,20.90
2008,09,16,13,39,20.90
2008,09,16,13,40,20.90
2008,09,16,13,41,20.80
2008,09,16,13,42,20.80
2008,09,16,13,43,20.80
2008,09,16,13,44,20.80
2008,09,16,13,45,20.80
2008,09,16,13,46,20.70
2008,09,16,13,47,20.70
2008,09,16,13,48,20.70
2008,09,16,13,49,20.80
2008,09,16,13,50,20.80
2008,09,16,13,51,21.00
2008,09,16,13,52,21.10
2008,09,16,13,53,21.30
2008,09,16,13,54,21.50
2008,09,16,13,55,21.60
2008,09,16,13,56,21.70
2008,09,16,13,57,21.80
2008,09,16,13,58,21.70
2008,09,16,13,59,21.70
2008,09,16,14,00,21.80
2008,09,16,14,01,21.80
2008,09,16,14,02,21.80
2008,09,16,14,03,21.90
2008,09,16,14,04,21.90
2008,09,16,14,05,22.00
2008,09,16,14,06,22.00
2008,09,16,14,07,22.10
2008,09,16,14,08,22.20
2008,09,16,14,09,22.30
2008,09,16,14,10,22.20
2008,09,16,14,11,22.20
2008,09,16,14,12,22.20
2008,09,16,14,13,22.20
2008,09,16,14,14,22.10
2008,09,16,14,15,22.10
2008,09,16,14,16,22.10
2008,09,16,14,17,22.10
2008,09,16,14,18,22.20
2008,09,16,14,19,22.20
2008,09,16,14,20,22.20
2008,09,16,14,21,22.30
2008,09,16,14,22,22.30
2008,09,16,14,23,22.40
2008,09,16,14,24,22.40
2008,09,16,14,25,22.40
2008,09,16,14,26,22.40
2008,09,16,14,27,22.30
2008,09,16,14,28,22.20
2008,09,16,14,29,22.20
2008,09,16,14,30,22.10
2008,09,16,14,31,21.90
2008,09,16,14,32,21.70
2008,09,16,14,33,21.60
2008,09,16,14,34,21.60
2008,09,16,14,35,21.60
2008,09,16,14,36,21.50
2008,09,16,14,37,21.50
2008,09,16,14,38,21.60
2008,09,16,14,39,21.60
2008,09,16,14,40,21.70
2008,09,16,14,41,21.80
2008,09,16,14,42,21.90
2008,09,16,14,43,21.90
2008,09,16,14,44,22.00
2008,09,16,14,45,22.10
2008,09,16,14,46,22.20
2008,09,16,14,47,22.30
2008,09,16,14,48,22.30
2008,09,16,14,49,22.40
2008,09,16,14,50,22.40
2008,09,16,14,51,22.40
2008,09,16,14,52,22.40
2008,09,16,14,53,22.50
2008,09,16,14,54,22.50
2008,09,16,14,55,22.50
2008,09,16,14,56,22.50
2008,09,16,14,57,22.60
2008,09,16,14,58,22.60
2008,09,16,14,59,22.60
2008,09,16,15,00,22.70
2008,09,16,15,01,22.70
2008,09,16,15,02,22.80
2008,09,16,15,03,22.90
2008,09,16,15,04,22.90
2008,09,16,15,05,23.00
2008,09,16,15,06,23.10
2008,09,16,15,07,23.00
2008,09,16,15,08,22.90
2008,09,16,15,09,22.90
2008,09,16,15,10,22.80
2008,09,16,15,11,22.70
2008,09,16,15,12,22.60
2008,09,16,15,13,22.60
2008,09,16,15,14,22.60
2008,09,16,15,15,22.70
2008,09,16,15,16,22.70
2008,09,16,15,17,22.90
2008,09,16,15,18,23.00
2008,09,16,15,19,23.20
2008,09,16,15,20,23.30
2008,09,16,15,21,23.40
2008,09,16,15,22,23.50
2008,09,16,15,23,23.60
2008,09,16,15,24,23.70
2008,09,16,15,25,23.70
2008,09,16,15,26,23.70
2008,09,16,15,27,23.70
2008,09,16,15,28,23.60
2008,09,16,15,29,23.60
2008,09,16,15,30,23.40
2008,09,16,15,31,23.40
2008,09,16,15,32,23.40
2008,09,16,15,33,23.40
2008,09,16,15,34,23.40
2008,09,16,15,35,23.40
2008,09,16,15,36,23.40
2008,09,16,15,37,23.50
2008,09,16,15,38,23.60
2008,09,16,15,39,23.50
2008,09,16,15,40,23.40
2008,09,16,15,41,23.50
2008,09,16,15,42,23.60
2008,09,16,15,43,23.50
2008,09,16,15,44,23.50
2008,09,16,15,45,23.60
2008,09,16,15,46,23.60
2008,09,16,15,47,23.70
2008,09,16,15,48,23.70
2008,09,16,15,49,23.70
2008,09,16,15,50,23.70
2008,09,16,15,51,23.70
2008,09,16,15,52,23.80
2008,09,16,15,53,23.80
2008,09,16,15,54,23.80
2008,09,16,15,55,23.80
2008,09,16,15,56,23.70
2008,09,16,15,57,23.70
2008,09,16,15,58,23.50
2008,09,16,15,59,23.40
2008,09,16,16,00,23.30
2008,09,16,16,01,23.30
2008,09,16,16,02,23.30
2008,09,16,16,03,23.40
2008,09,16,16,04,23.40
2008,09,16,16,05,23.40
2008,09,16,16,06,23.40
2008,09,16,16,07,23.60
2008,09,16,16,08,23.70
2008,09,16,16,09,23.70
2008,09,16,16,10,23.70
2008,09,16,16,11,23.70
2008,09,16,16,12,23.70
2008,09,16,16,13,23.50
2008,09,16,16,14,23.40
2008,09,16,16,15,23.40
2008,09,16,16,16,23.50
2008,09,16,16,17,23.60
2008,09,16,16,18,23.70
2008,09,16,16,19,23.80
2008,09,16,16,20,23.90
2008,09,16,16,21,23.90
2008,09,16,16,22,23.80
2008,09,16,16,23,23.70
2008,09,16,16,24,23.70
2008,09,16,16,25,23.60
2008,09,16,16,26,23.60
2008,09,16,16,27,23.60
2008,09,16,16,28,23.60
2008,09,16,16,29,23.50
2008,09,16,16,30,23.40
2008,09,16,16,31,23.30
2008,09,16,16,32,23.30
2008,09,16,16,33,23.20
2008,09,16,16,34,23.10
2008,09,16,16,35,23.00
2008,09,16,16,36,22.90
2008,09,16,16,37,22.80
2008,09,16,16,38,22.80
2008,09,16,16,39,22.70
2008,09,16,16,40,22.70
2008,09,16,16,41,22.70
2008,09,16,16,42,22.80
2008,09,16,16,43,22.80
2008,09,16,16,44,22.80
2008,09,16,16,45,22.80
2008,09,16,16,46,22.80
2008,09,16,16,47,22.80
2008,09,16,16,48,22.80
2008,09,16,16,49,22.80
2008,09,16,16,50,22.80
2008,09,16,16,51,22.90
2008,09,16,16,52,22.90
2008,09,16,16,53,22.90
2008,09,16,16,54,22.90
2008,09,16,16,55,22.90
2008,09,16,16,56,22.90
2008,09,16,16,57,22.90
2008,09,16,16,58,22.90
2008,09,16,16,59,22.90
2008,09,16,17,00,22.90
2008,09,16,17,01,23.00
2008,09,16,17,02,23.10
2008,09,16,17,03,23.10
2008,09,16,17,04,23.10
2008,09,16,17,05,23.10
2008,09,16,17,06,23.10
2008,09,16,17,07,23.10
2008,09,16,17,08,23.10
2008,09,16,17,09,23.10
2008,09,16,17,10,23.10
2008,09,16,17,11,23.00
2008,09,16,17,12,22.90
2008,09,16,17,13,22.90
2008,09,16,17,14,22.90
2008,09,16,17,15,22.90
2008,09,16,17,16,22.90
2008,09,16,17,17,23.00
2008,09,16,17,18,23.10
2008,09,16,17,19,23.20